Вернуться в каталог

KOSTKA

АктивенВоенныеSSO
NORAD 69935·PAYLOAD·🇺🇸 United States

Запущен Jul 7, 2026 с Vandenberg Space Force Base

Loading…

Ближайшие Пролёты (ближайшие 24 часа)

TLE

СвежийSource: Space-Track

Эпоха: Sep 14, 2026, 11:01 UTC

1 69935U 26156BU  26257.45968864  .00002080  00000-0  20693-3 0  9997
2 69935  97.7402 156.7956 0008394 288.7248  71.3060 14.92715754 10312

Отслеживайте KOSTKA в реальном времени с AllMySat

Download on the App Store